#timestamp,LO_Frequency,Hit 
1505304015.3,286046998.8,N
1505304035.1,286046998.2,N
1505304036.0,286046998.2,N
1505304055.8,286046997.8,N
1505304075.7,286046995.1,N
1505304095.5,286046995.7,N
1505304115.3,286046995.4,N
1505304135.1,286047000.7,N
1505304155.9,286047001.2,N
1505304175.7,286046998.6,N
1505304195.5,286046998.6,N
1505304215.4,286046997.9,N
1505304235.2,286046999.3,N
1505304255.0,286046997.3,N
1505304255.9,286046997.3,N
1505304275.8,286046997.8,N
1505304295.6,286046995.4,N
1505304315.4,286046996.2,N
1505304335.3,286046998.2,N
1505304355.1,286046999.5,N
1505304356.0,286046999.5,N
1505304375.8,286046995.5,N
1505304395.7,286046995.8,N
1505304415.5,286046995.2,N
1505304435.3,286046995.8,N
1505304455.2,286046997.3,N
1505304475.9,286046997.0,N
1505304495.7,286047002.8,N
1505304515.5,286047001.4,N
1505304535.4,286047003.0,N
1505304555.2,286046999.9,N
1505304575.0,286047000.4,N
1505304575.9,286047000.4,N
1505304595.8,286047000.0,N
1505304615.6,286047004.2,N
1505304635.4,286047000.6,N
1505304655.3,286046997.2,N
1505304675.1,286046997.3,N
1505304695.8,286046994.9,N
1505304715.7,286046992.6,P
1505304735.5,286046992.4,N
1505304755.3,286046995.6,N
1505304775.2,286046997.7,N
1505304795.9,286046999.5,N
1505304815.7,286046995.5,N
1505304835.6,286046995.9,N
1505304855.4,286046999.6,N
1505304875.2,286046997.9,N
1505304895.1,286046997.7,N
1505304896.0,286046997.7,N
1505304915.8,286047000.5,N
1505304935.6,286047005.2,N
1505304955.4,286047001.9,N
1505304975.3,286047002.7,N
1505304995.1,286047002.5,N
1505305015.8,286047001.0,N
1505305035.7,286047000.3,N
1505305055.5,286047002.0,N
1505305075.3,286047002.8,N
1505305095.2,286047002.5,N
1505305115.9,286047003.8,N
1505305135.7,286047002.3,N
1505305155.6,286046998.9,N
1505305175.4,286047000.6,N
1505305195.2,286046998.2,N
1505305215.0,286046998.8,N
1505305216.0,286046998.8,N
1505305235.8,286046996.9,N
1505305255.6,286047000.6,N
1505305275.4,286047008.9,N
1505305295.3,286047004.9,N
1505305315.1,286047002.1,N
1505305335.8,286047001.2,N
1505305355.7,286047002.5,N
1505305375.5,286047007.6,N
1505305395.3,286047005.0,N
1505305415.2,286047008.0,N
1505305435.9,286047006.6,N
1505305455.7,286047011.7,P
1505305475.6,286047009.9,N
1505305495.4,286047012.2,N
1505305515.2,286047006.7,N
1505305535.1,286047006.7,N
1505305536.0,286047006.7,N
1505305555.8,286047008.3,N
1505305575.6,286047008.8,N
1505305595.5,286047006.2,N
1505305615.3,286047004.6,N
1505305635.1,286047001.8,N
1505305655.8,286047002.8,N
1505305675.7,286046998.9,N
1505305695.5,286047000.5,N
1505305715.3,286046998.2,N
1505305735.2,286046998.2,N
1505305755.0,286047001.7,N
1505305755.9,286047001.7,N
1505305775.7,286046999.9,N
1505305795.6,286046998.6,N
1505305815.4,286046998.1,N
1505305835.2,286046999.6,N
1505305855.1,286047000.9,N
1505305856.0,286047000.9,N
1505305875.8,286047000.1,N
1505305895.6,286047004.5,N
1505305915.5,286047012.1,N
1505305935.3,286047013.5,P
1505305955.1,286047002.9,N
1505305975.9,286047004.2,N
1505305995.7,286047001.0,N
1505306015.5,286047002.5,N
1505306035.4,286047004.3,N
1505306055.2,286047000.0,N
1505306075.0,286047000.7,N
1505306075.9,286047000.7,N
1505306095.7,286047002.1,N
1505306115.6,286047001.6,N
1505306135.4,286047001.9,N
1505306155.2,286047006.3,N
1505306175.1,286047008.4,N
1505306176.0,286047008.4,N
1505306195.8,286047009.8,N
1505306215.6,286047006.3,N
1505306235.5,286047010.4,N
1505306255.3,286047001.4,N
1505306275.1,286046999.6,N
1505306295.9,286046999.4,N
1505306315.7,286046997.2,N
1505306335.5,286046999.4,N
1505306355.4,286047001.9,N
1505306375.2,286047000.2,N
1505306395.0,286046998.1,N
1505306395.9,286046998.1,N
1505306415.7,286047005.8,N
1505306435.6,286047004.4,N
1505306455.4,286047004.9,N
1505306475.2,286046999.7,N
1505306495.1,286046998.4,N
1505306496.0,286046998.4,N
1505306515.8,286047000.4,N
1505306535.6,286046998.8,N
1505306555.5,286046996.8,N
1505306575.3,286046997.2,N
1505306595.1,286046999.4,N
1505306615.9,286047002.1,N
1505306635.7,286047003.6,N
1505306655.5,286047004.5,N
1505306675.4,286047010.1,N
1505306695.2,286047006.6,N
1505306715.0,286047004.4,N
1505306715.9,286047004.4,N
1505306735.8,286046999.5,N
1505306755.6,286046997.6,N
1505306775.4,286046994.9,N
1505306795.2,286046995.3,N
1505306815.1,286046995.2,N
1505306816.0,286046995.2,N
1505306835.8,286046996.9,N
1505306855.6,286046999.3,N
1505306875.5,286046997.9,N
1505306895.3,286046996.5,N
1505306915.1,286047001.2,N
1505306935.9,286047003.5,N
1505306955.7,286047008.7,N
1505306975.5,286047008.8,N
1505306995.4,286047006.2,N
1505307015.2,286047005.1,N
1505307035.0,286047001.4,N
1505307035.9,286047001.4,N
1505307055.8,286047004.2,N
1505307075.6,286047004.3,N
1505307095.4,286047000.1,N
1505307115.3,286047007.0,N
1505307135.1,286047003.4,N
1505307136.0,286047003.4,N
1505307155.8,286046998.1,N
1505307175.7,286046995.7,N
1505307195.5,286046991.7,N
1505307215.3,286046992.3,N
1505307235.1,286046998.0,N
1505307255.9,286046995.2,N
1505307275.7,286046998.8,N
1505307295.5,286047000.9,N
1505307315.4,286047000.6,N
1505307335.2,286046996.5,N
1505307355.0,286046997.2,N
1505307355.9,286046997.2,N
1505307375.8,286046998.8,N
1505307395.6,286047003.2,N
1505307415.4,286047005.1,N
1505307435.3,286047005.2,N
1505307455.1,286047005.8,N
1505307456.0,286047005.8,N
1505307475.8,286047005.5,N
1505307495.7,286047000.2,N
1505307515.5,286046999.8,N
1505307535.3,286046998.4,N
1505307555.1,286046996.6,N
1505307575.9,286046997.5,N
1505307595.7,286046997.3,N
